Regional Weather Roundup
Issued by NWS

Home | Current Version | Previous Version | Graphics & Text | Print | Product List | Glossary On
Versions: 1 2 3 4 5 6 7 8 9 10 11 12 13 14 15 16 17 18 19 20 21 22 23 24 25 26 27 28 29 30 31 32 33 34 35 36 37 38 39 40 41 42 43 44 45 46 47 48 49 50
453
ASUS45 KCYS 180810
RWRWY

WYOMING REGIONAL WEATHER ROUNDUP
NATIONAL WEATHER SERVICE CHEYENNE WY
100 AM MST SUN FEB 18 2018

NOTE:  "FAIR" INDICATES FEW OR NO CLOUDS BELOW 12,000 FEET
WITH NO SIGNIFICANT WEATHER AND/OR OBSTRUCTIONS TO VISIBILITY.

WYZ001-180900-
YELLOWSTONE NATIONAL PARK

CITY           SKY/WX    TMP DP  RH WIND       PRES   REMARKS
LK YELLOWSTONE   N/A     28  24  85 W14G29    29.44F WCI  17
W YELLOWSTONE  NOT AVBL

$$
WYZ002>013-054>058-071-098>099-180900-
NORTHERN WYOMING

CITY           SKY/WX    TMP DP  RH WIND       PRES   REMARKS
JACKSON        LGT SNOW  30  30 100 S23       29.52F VSB 3/4 WCI  17
CODY           FAIR      38  29  70 SW9       29.38F WCI  31
GREYBULL       CLOUDY    27  21  78 NW6       29.38F WCI  20
WORLAND        FAIR      41  25  53 S24       29.37F
SHERIDAN       FAIR      22  20  92 VRB3      29.39F
BUFFALO        FAIR      44  23  43 W21G37    29.36F
GILLETTE         N/A     41  22  46 SW17      29.37F
HULETT         CLOUDY    23  19  86 E5        29.41F WCI  17
NEWCASTLE      FAIR      37  18  44 E9G22     29.46F WCI  31

$$
WYZ014>020-022>026-101>103-180900-
CENTRAL WYOMING

CITY           SKY/WX    TMP DP  RH WIND       PRES   REMARKS
BIG PINEY      CLOUDY    34  13  41 SE12      29.60F WCI  25
PINEDALE       PTSUNNY   32  18  55 S12       29.61F WCI  23
DUBOIS           N/A    N/A N/A N/A MISG        N/A
LANDER         FAIR      45  19  35 S24G41    29.41F
RIVERTON       MOCLDY    42  17  36 SE16G30   29.46F
CASPER         LGT RAIN  42  12  29 SW33G46   29.50F
DOUGLAS        FAIR      49  15  25 W33G48    29.44F

$$
WYZ021-027>030-104>119-180900-
SOUTHERN WYOMING

CITY           SKY/WX    TMP DP  RH WIND       PRES   REMARKS
EVANSTON       FAIR      40  16  37 SW24G31   29.66F WCI  29
FORT BRIDGER   FAIR      42  13  31 W25G35    29.67F
ROCK SPRINGS   FAIR      42   7  23 SW22G31   29.64F
DIXON          FAIR      36  18  48 S18G32    29.78F WCI  26
RAWLINS        MOCLDY    37  11  34 SW33G48   29.61F WCI  24
SARATOGA       FAIR      36  12  38 SW23      29.70F WCI  24
LARAMIE        FAIR      34   9  35 SW14G21   29.67F WCI  25
CHEYENNE       FAIR      39   4  23 SW5       29.66F
TORRINGTON     FAIR      44  13  28 S13       29.57F
PINE BLUFFS    FAIR      30  18  59 S18G26    29.65F WCI  18

$$




USA.gov is the U.S. government's official web portal to all federal, state and local government web resources and services.